sat.trackr.live / text

‹ back to catalog

STARLINK-4302

NORAD 53481 · 2022-099S

PAYLOAD ACTIVE UNKNOWN

§ Identity

Operator
Country
US
Launch date
2022-08-12
Launch site
AFWTR
Launch vehicle
Mass (kg)
RCS (m²)

Purposes: comms

External: N2YO · Heavens-Above · Gunter

§ Orbital elements

Epoch: 2026-09-20T00:00:02.998944Z

Period
93.47 min
Inclination
97.5132°
Eccentricity
0.0001530
Mean motion
15.40678494 rev/d
Perigee alt
443.1 km
Apogee alt
445.1 km
Semi-major
6,822.2 km
B*
4.4851e-4
RAAN
30.1783°
Arg perigee
83.0207°
Mean anomaly
149.3715°
Rev number
589

§ Raw data

STARLINK-43021 53481U 22099S   26263.00003471  .00018233  00000+0  44851-3 0  99982 53481  97.5132  30.1783 0001530  83.0207 149.3715 15.40678494  5891

JSON: /api/v1/satellites/53481 · /tle

For live sub-satellite position, see the globe view (requires WebGL).

§ Visibility from observer

Set your observer location to see the next 7 days of passes ≥ 10°. The values pass through the URL so the page stays shareable.

No JS? Fill the form by hand. The geolocation button needs JavaScript.